Zurück zum Katalog

SL-6 DEB

LostHEO
NORAD 48265·DEBRIS·🇷🇺 Russia

Gestartet Dec 23, 1981 von Baikonur Cosmodrome

Loading…

Nächste Überflüge (nächste 24 Stunden)

TLE

VeraltetSource: Space-Track

Epoche: Jul 14, 2026, 06:32 UTC

1 48265U 81123E   26195.27247096 -.00000082  00000-0  00000-0 0  9991
2 48265  62.3491  58.3257 7139450 277.4104 322.8905  2.19410724101322

Verfolge SL-6 DEB in Echtzeit mit AllMySat

Download on the App Store